Location: San Gennaro Vesuviano
(40.8833°N, 14.5333°E)
Time: 10:15:16
(UTC+00:00)

Cosmos 2058 - Pass Details

Date: 22 April 2021
Orbit: 561 x 583 km, 82.5° (Epoch: 10 May)

Event Time Altitude Azimuth Distance (km) Brightness Sun altitude
Rises 18:59:18 0° 349° (NNW) 2,801 7.1 -13.0°
Reaches altitude 10° 19:01:31 10° 346° (NNW) 1,894 6.2 -13.4°
Maximum altitude 19:05:39 65° 265° (W) 631 3.3 -14.0°
Drops below altitude 10° 19:09:44 10° 183° (S) 1,866 5.2 -14.7°
Enters shadow 19:10:37 - 182° (S) 2,222 5.6 -14.8°
